(°C)
(°C)
-4°
-4°
-4°
-3°
-3°
-3°
-2°
სსდ
სსდ
სსდ
სსდ
სსდ
სსდ
სსდ
(კმ/სთ)
17-27
18-29
18-28
19-28
20-29
20-29
20-30
(მმ)
0
0
0
0
0
0
0
(%)
0
0
0
0
0
0
0

მზის სიმაღლე

/ 0.5°
sun-icon
UV 1
07:45
17:30
კლებადი მთვარე (255°)
21:08
14:49

METAR 55.31°ჩრ. 61.5°აღმ. (USCC)-თვის

დრო პირობები ტემპერატურა/
ნამი
ქარი ხილვადობა ამინდი ღრუბლები წნევა ცვლილება დაუმუშავებელი
VFR 2°C / -7°C 230º 14kt >10km - Scattered Clouds 4000ft 1020 No Significant change USCC 270230Z 23007MPS 9999 SCT040 02/M07 Q1020 R27/000060 NOSIG RMK QFE744
VFR 2°C / -7°C 240º 12kt >10km - Scattered Clouds 4000ft 1020 No Significant change USCC 270200Z 24006MPS 9999 SCT040 02/M07 Q1020 R27/000060 NOSIG RMK QFE745
VFR 2°C / -6°C 230º 14kt >10km - Scattered Clouds 4000ft 1020 No Significant change USCC 270130Z 23007MPS 9999 SCT040 02/M06 Q1020 R27/000060 NOSIG RMK QFE745
VFR 2°C / -6°C 230º 10kt >10km - Scattered Clouds 4000ft 1020 No Significant change USCC 270100Z 23005MPS 9999 SCT040 02/M06 Q1020 R27/000060 NOSIG RMK QFE745
VFR 2°C / -6°C 230º 10kt >10km - Scattered Clouds 4000ft 1020 No Significant change USCC 270030Z 23005MPS 9999 SCT040 02/M06 Q1020 R27/000060 NOSIG RMK QFE744
VFR 2°C / -6°C 240º 12kt. Wind Shear present on Runway 27. >10km - Scattered Clouds 4000ft 1020 No Significant change USCC 270000Z 24006MPS 9999 SCT040 02/M06 Q1020 WS R27 R27/000060 NOSIG RMK QFE744
VFR 2°C / -6°C 240º 14kt >10km - Scattered Clouds 4000ft 1019 No Significant change USCC 262330Z 24007MPS 9999 SCT040 02/M06 Q1019 R27/000060 NOSIG RMK QFE744
VFR 2°C / -5°C 210º 10kt >10km - Scattered Clouds 4000ft 1020 No Significant change USCC 262300Z 21005MPS 9999 SCT040 02/M05 Q1020 R27/000060 NOSIG RMK QFE745
VFR 2°C / -6°C 240º 12kt >10km - Scattered Clouds 4000ft 1020 No Significant change USCC 262230Z 24006MPS 9999 SCT040 02/M06 Q1020 R27/000060 NOSIG RMK QFE745
VFR 2°C / -5°C 220º 8kt >10km - Broken Clouds 3400ft 1020 No Significant change USCC 262200Z 22004MPS 9999 BKN034 02/M05 Q1020 R27/000060 NOSIG RMK QFE745
VFR 2°C / -6°C 250º 10kt >10km - Scattered Clouds 3000ft 1020 No Significant change USCC 262130Z 25005MPS 9999 SCT030CB 02/M06 Q1020 R27/000060 NOSIG RMK QFE745
VFR 2°C / -6°C 240º 12kt >10km - Scattered Clouds 3700ft 1020 No Significant change USCC 262100Z 24006MPS 9999 SCT037CB 02/M06 Q1020 R27/000060 NOSIG RMK QFE745
VFR 2°C / -6°C 240º 10kt >10km - Scattered Clouds 4000ft 1020 No Significant change USCC 262030Z 24005MPS 9999 SCT040CB 02/M06 Q1020 R27/000060 NOSIG RMK QFE745
VFR 2°C / -6°C 240º 10kt >10km - Scattered Clouds 3000ft 1020 No Significant change USCC 262000Z 24005MPS 9999 SCT030CB 02/M06 Q1020 R27/000060 NOSIG RMK QFE745
VFR 2°C / -6°C 240º 10kt >10km Light Showers Snow 3.00mm precipitation Vertical Visibility of 0ft. 1020 No Significant change USCC 261930Z 24005MPS 9999 -SHSN SCT030CB 02/M06 Q1020 R27/000060 NOSIG RMK QFE745
VFR 2°C / -7°C 240º 10kt >10km Light Showers Snow 3.00mm precipitation Vertical Visibility of 0ft. 1020 No Significant change USCC 261900Z 24005MPS 9999 -SHSN BKN036CB 02/M07 Q1020 R27/000060 NOSIG RMK QFE745
VFR 2°C / -7°C 240º 12kt >10km Light Showers Snow 3.00mm precipitation Vertical Visibility of 0ft. 1020 No Significant change USCC 261830Z 24006MPS 9999 -SHSN BKN037CB 02/M07 Q1020 R27/000060 NOSIG RMK QFE745
VFR 2°C / -8°C 220º 10kt >10km - Broken Clouds 3700ft 1020 No Significant change USCC 261800Z 22005MPS 9999 BKN037CB 02/M08 Q1020 R27/000060 NOSIG RMK QFE745
VFR 2°C / -8°C 240º 10kt >10km - Scattered Clouds 4000ft 1020 No Significant change USCC 261730Z 24005MPS 9999 SCT040CB 02/M08 Q1020 R27/000060 NOSIG RMK QFE745
VFR 1°C / -8°C 230º 10kt >10km - Scattered Clouds 4000ft 1020 No Significant change USCC 261700Z 23005MPS 9999 SCT040CB 01/M08 Q1020 R27/000060 NOSIG RMK QFE745
VFR 1°C / -8°C 210º 8kt >10km - Scattered Clouds 4000ft 1020 No Significant change USCC 261630Z 21004MPS 9999 SCT040CB 01/M08 Q1020 R27/000060 NOSIG RMK QFE745
VFR 1°C / -8°C 230º 12kt >10km - Scattered Clouds 4000ft 1020 No Significant change USCC 261600Z 23006MPS 9999 SCT040CB 01/M08 Q1020 R27/000060 NOSIG RMK QFE745
VFR 1°C / -8°C 230º 8kt >10km - Scattered Clouds 4000ft 1020 No Significant change USCC 261530Z 23004MPS 9999 SCT040CB 01/M08 Q1020 R27/000060 NOSIG RMK QFE745
VFR 1°C / -8°C 230º 8kt >10km - Scattered Clouds 4000ft 1020 No Significant change USCC 261500Z 23004MPS 9999 SCT040CB 01/M08 Q1020 R27/000060 NOSIG RMK QFE745

VFR

2°C / -7°C

[მეტი]
ქარი 230º 14kt
ხილვადობა >10km
ამინდი -
ღრუბლები Scattered Clouds 4000ft
წნევა 1020
ცვლილება No Significant change
დაუმუშავებელი USCC 270230Z 23007MPS 9999 SCT040 02/M07 Q1020 R27/000060 NOSIG RMK QFE744

VFR

2°C / -7°C

[მეტი]
ქარი 240º 12kt
ხილვადობა >10km
ამინდი -
ღრუბლები Scattered Clouds 4000ft
წნევა 1020
ცვლილება No Significant change
დაუმუშავებელი USCC 270200Z 24006MPS 9999 SCT040 02/M07 Q1020 R27/000060 NOSIG RMK QFE745

VFR

2°C / -6°C

[მეტი]
ქარი 230º 14kt
ხილვადობა >10km
ამინდი -
ღრუბლები Scattered Clouds 4000ft
წნევა 1020
ცვლილება No Significant change
დაუმუშავებელი USCC 270130Z 23007MPS 9999 SCT040 02/M06 Q1020 R27/000060 NOSIG RMK QFE745

VFR

2°C / -6°C

[მეტი]
ქარი 230º 10kt
ხილვადობა >10km
ამინდი -
ღრუბლები Scattered Clouds 4000ft
წნევა 1020
ცვლილება No Significant change
დაუმუშავებელი USCC 270100Z 23005MPS 9999 SCT040 02/M06 Q1020 R27/000060 NOSIG RMK QFE745

VFR

2°C / -6°C

[მეტი]
ქარი 230º 10kt
ხილვადობა >10km
ამინდი -
ღრუბლები Scattered Clouds 4000ft
წნევა 1020
ცვლილება No Significant change
დაუმუშავებელი USCC 270030Z 23005MPS 9999 SCT040 02/M06 Q1020 R27/000060 NOSIG RMK QFE744

VFR

2°C / -6°C

[მეტი]
ქარი 240º 12kt. Wind Shear present on Runway 27.
ხილვადობა >10km
ამინდი -
ღრუბლები Scattered Clouds 4000ft
წნევა 1020
ცვლილება No Significant change
დაუმუშავებელი USCC 270000Z 24006MPS 9999 SCT040 02/M06 Q1020 WS R27 R27/000060 NOSIG RMK QFE744

VFR

2°C / -6°C

[მეტი]
ქარი 240º 14kt
ხილვადობა >10km
ამინდი -
ღრუბლები Scattered Clouds 4000ft
წნევა 1019
ცვლილება No Significant change
დაუმუშავებელი USCC 262330Z 24007MPS 9999 SCT040 02/M06 Q1019 R27/000060 NOSIG RMK QFE744

VFR

2°C / -5°C

[მეტი]
ქარი 210º 10kt
ხილვადობა >10km
ამინდი -
ღრუბლები Scattered Clouds 4000ft
წნევა 1020
ცვლილება No Significant change
დაუმუშავებელი USCC 262300Z 21005MPS 9999 SCT040 02/M05 Q1020 R27/000060 NOSIG RMK QFE745

VFR

2°C / -6°C

[მეტი]
ქარი 240º 12kt
ხილვადობა >10km
ამინდი -
ღრუბლები Scattered Clouds 4000ft
წნევა 1020
ცვლილება No Significant change
დაუმუშავებელი USCC 262230Z 24006MPS 9999 SCT040 02/M06 Q1020 R27/000060 NOSIG RMK QFE745

VFR

2°C / -5°C

[მეტი]
ქარი 220º 8kt
ხილვადობა >10km
ამინდი -
ღრუბლები Broken Clouds 3400ft
წნევა 1020
ცვლილება No Significant change
დაუმუშავებელი USCC 262200Z 22004MPS 9999 BKN034 02/M05 Q1020 R27/000060 NOSIG RMK QFE745

VFR

2°C / -6°C

[მეტი]
ქარი 250º 10kt
ხილვადობა >10km
ამინდი -
ღრუბლები Scattered Clouds 3000ft
წნევა 1020
ცვლილება No Significant change
დაუმუშავებელი USCC 262130Z 25005MPS 9999 SCT030CB 02/M06 Q1020 R27/000060 NOSIG RMK QFE745

VFR

2°C / -6°C

[მეტი]
ქარი 240º 12kt
ხილვადობა >10km
ამინდი -
ღრუბლები Scattered Clouds 3700ft
წნევა 1020
ცვლილება No Significant change
დაუმუშავებელი USCC 262100Z 24006MPS 9999 SCT037CB 02/M06 Q1020 R27/000060 NOSIG RMK QFE745

VFR

2°C / -6°C

[მეტი]
ქარი 240º 10kt
ხილვადობა >10km
ამინდი -
ღრუბლები Scattered Clouds 4000ft
წნევა 1020
ცვლილება No Significant change
დაუმუშავებელი USCC 262030Z 24005MPS 9999 SCT040CB 02/M06 Q1020 R27/000060 NOSIG RMK QFE745

VFR

2°C / -6°C

[მეტი]
ქარი 240º 10kt
ხილვადობა >10km
ამინდი -
ღრუბლები Scattered Clouds 3000ft
წნევა 1020
ცვლილება No Significant change
დაუმუშავებელი USCC 262000Z 24005MPS 9999 SCT030CB 02/M06 Q1020 R27/000060 NOSIG RMK QFE745

VFR

2°C / -6°C

[მეტი]
ქარი 240º 10kt
ხილვადობა >10km
ამინდი Light Showers Snow 3.00mm precipitation
ღრუბლები Vertical Visibility of 0ft.
წნევა 1020
ცვლილება No Significant change
დაუმუშავებელი USCC 261930Z 24005MPS 9999 -SHSN SCT030CB 02/M06 Q1020 R27/000060 NOSIG RMK QFE745

VFR

2°C / -7°C

[მეტი]
ქარი 240º 10kt
ხილვადობა >10km
ამინდი Light Showers Snow 3.00mm precipitation
ღრუბლები Vertical Visibility of 0ft.
წნევა 1020
ცვლილება No Significant change
დაუმუშავებელი USCC 261900Z 24005MPS 9999 -SHSN BKN036CB 02/M07 Q1020 R27/000060 NOSIG RMK QFE745

VFR

2°C / -7°C

[მეტი]
ქარი 240º 12kt
ხილვადობა >10km
ამინდი Light Showers Snow 3.00mm precipitation
ღრუბლები Vertical Visibility of 0ft.
წნევა 1020
ცვლილება No Significant change
დაუმუშავებელი USCC 261830Z 24006MPS 9999 -SHSN BKN037CB 02/M07 Q1020 R27/000060 NOSIG RMK QFE745

VFR

2°C / -8°C

[მეტი]
ქარი 220º 10kt
ხილვადობა >10km
ამინდი -
ღრუბლები Broken Clouds 3700ft
წნევა 1020
ცვლილება No Significant change
დაუმუშავებელი USCC 261800Z 22005MPS 9999 BKN037CB 02/M08 Q1020 R27/000060 NOSIG RMK QFE745

VFR

2°C / -8°C

[მეტი]
ქარი 240º 10kt
ხილვადობა >10km
ამინდი -
ღრუბლები Scattered Clouds 4000ft
წნევა 1020
ცვლილება No Significant change
დაუმუშავებელი USCC 261730Z 24005MPS 9999 SCT040CB 02/M08 Q1020 R27/000060 NOSIG RMK QFE745

VFR

1°C / -8°C

[მეტი]
ქარი 230º 10kt
ხილვადობა >10km
ამინდი -
ღრუბლები Scattered Clouds 4000ft
წნევა 1020
ცვლილება No Significant change
დაუმუშავებელი USCC 261700Z 23005MPS 9999 SCT040CB 01/M08 Q1020 R27/000060 NOSIG RMK QFE745

VFR

1°C / -8°C

[მეტი]
ქარი 210º 8kt
ხილვადობა >10km
ამინდი -
ღრუბლები Scattered Clouds 4000ft
წნევა 1020
ცვლილება No Significant change
დაუმუშავებელი USCC 261630Z 21004MPS 9999 SCT040CB 01/M08 Q1020 R27/000060 NOSIG RMK QFE745

VFR

1°C / -8°C

[მეტი]
ქარი 230º 12kt
ხილვადობა >10km
ამინდი -
ღრუბლები Scattered Clouds 4000ft
წნევა 1020
ცვლილება No Significant change
დაუმუშავებელი USCC 261600Z 23006MPS 9999 SCT040CB 01/M08 Q1020 R27/000060 NOSIG RMK QFE745

VFR

1°C / -8°C

[მეტი]
ქარი 230º 8kt
ხილვადობა >10km
ამინდი -
ღრუბლები Scattered Clouds 4000ft
წნევა 1020
ცვლილება No Significant change
დაუმუშავებელი USCC 261530Z 23004MPS 9999 SCT040CB 01/M08 Q1020 R27/000060 NOSIG RMK QFE745

VFR

1°C / -8°C

[მეტი]
ქარი 230º 8kt
ხილვადობა >10km
ამინდი -
ღრუბლები Scattered Clouds 4000ft
წნევა 1020
ცვლილება No Significant change
დაუმუშავებელი USCC 261500Z 23004MPS 9999 SCT040CB 01/M08 Q1020 R27/000060 NOSIG RMK QFE745

TAF 55.31°ჩრ. 61.5°აღმ. (USCC)-თვის

From till


From till Wind 230º 10kt. Gust 29kt. Visibility 10km or more. Broken Clouds 3000ft.
Temporarly from till Light Snow .
Temporarly from till Wind 170º 10kt. Gust 33kt.

დაუმუშავებელი: TAF USCC 270200Z 2703/2803 23005G15MPS 9999 BKN030 TEMPO 2703/2706 -SN TEMPO 2706/2715 17005G17MPS

მიმდინარე სატელიტისა და წვიმის სურათები 55.31°ჩრ. 61.5°აღმ.-თვის

ლოკაციის მარკერი დაყენებყლია 55.31°ჩრ. 61.5°აღმ.ზე. [მეტი]

რეალურ დროში სატელიტური სურათი აერთიანებს ხილულ სინათლეს დღისით ღამის განმავლობაში ინფრაწითელ გამოსხივებასთან ერთად. ღამით, სურათი არ არის მუქი, რადგან ინფრაწითელ გამოსხივებას შეუძლია ტემპერატურის განსხვავებების დადგენა. სამწუხაროდ, დაბალი ღრუბლები და ნისლი ძნელია განასხვავონ მიწის ტემპერატურისგან და, შესაბამისად, ისინი შეიძლება თითქმის არ ჩანდეს ღამით. Meteosat სატელიტური გამოსახულება ევროპისთვის ახლდება რეალურ დროში ყოველ 5 წუთში. GOES-16/GOES-17 (ჩრდილოეთი და სამხრეთ ამერიკა) და ჰიმავარი (აზია) გამოსახულებები ახლდება ყოველ 10 წუთში.

საავტორო უფლებები 2021 EUMETSAT / meteoblue. / საავტორო უფლებები 2021 meteoblue

რადარის და ნალექების მაჩვენებელი 55.31°ჩრ. 61.5°აღმ. -თვის

გაწურეთ
Მსუბუქი
ზომიერი
Მძიმე
Ძალიან მძიმე
სეტყვა

მდებარეობის მარკერი მოთავსებულია 55.31°ჩრ. 61.5°აღმ. -ზე. ეს ანიმაცია აჩვენებს ნალექების სარადარო მონაცემებს როგორც ბოლო საათის განმავლობაში, ასევე 1h პროგნოზს. წვიმა ან თოვლის მსუბუქი ვარდნა შეიძლება უჩინარი იყოს რადარისთვის. ნალექების ინტენსივობა არის კოდირებული ფერით, დაწყებული ღია ლურჯიდან ნარინჯისფერამდე.